• In Deutschland
  • Länderverzeichnis
  • Für 7 Tage
  • Wassertemperatur
  • Satellitenkarten
  • Wetterkarte
  • Widgets
  • user-avatar
    Anmelden

    Stündliche Wetter Belmopan

    Heute, 26 September, Dienstag

    Zeit Temperatur Niederschläge Wind Luftdruck Luftfeuchtigkeit
    00:00 +26°C° 0,9 mm 1 m/S 747 mmHg 96%
    01:00 +26°C° 0,6 mm 1 m/S 747 mmHg 96%
    02:00 +26°C° 0,6 mm 1 m/S 747 mmHg 96%
    03:00 +26°C° 0,6 mm 1 m/S 747 mmHg 96%
    04:00 +26°C° 1,3 mm 1 m/S 747 mmHg 96%
    05:00 +26°C° 1,3 mm 1 m/S 747 mmHg 96%
    06:00 +24°C° 1,3 mm 0 m/S 747 mmHg 97%
    07:00 +28°C° 0,3 mm 1 m/S 747 mmHg 91%
    08:00 +30°C° 0,3 mm 1 m/S 748 mmHg 85%
    09:00 +31°C° 0,3 mm 1 m/S 748 mmHg 79%
    10:00 +33°C° 0,2 mm 1 m/S 748 mmHg 69%
    11:00 +35°C° 0,2 mm 1 m/S 747 mmHg 59%
    12:00 +37°C° 0,2 mm 2 m/S 747 mmHg 49%
    13:00 +37°C° 0 mm 2 m/S 746 mmHg 50%
    14:00 +37°C° 0 mm 2 m/S 746 mmHg 51%
    15:00 +36°C° 0 mm 2 m/S 745 mmHg 52%
    16:00 +35°C° 0 mm 2 m/S 745 mmHg 60%
    17:00 +32°C° 0 mm 2 m/S 745 mmHg 69%
    18:00 +30°C° 0 mm 2 m/S 745 mmHg 77%
    19:00 +29°C° 0,1 mm 1 m/S 746 mmHg 82%
    20:00 +29°C° 0,1 mm 1 m/S 746 mmHg 86%
    21:00 +28°C° 0,1 mm 1 m/S 747 mmHg 91%
    22:00 +28°C° 0,8 mm 1 m/S 747 mmHg 92%
    23:00 +28°C° 0,8 mm 1 m/S 747 mmHg 94%

    Morgen, 27 September, Mittwoch

    Zeit Temperatur Niederschläge Wind Luftdruck Luftfeuchtigkeit
    00:00 +28°C° 0,8 mm 1 m/S 747 mmHg 96%
    01:00 +27°C° 0,4 mm 1 m/S 747 mmHg 96%
    02:00 +27°C° 0,4 mm 1 m/S 746 mmHg 96%
    03:00 +27°C° 0,4 mm 1 m/S 746 mmHg 96%
    04:00 +27°C° 1 mm 1 m/S 746 mmHg 96%
    05:00 +25°C° 1 mm 0 m/S 746 mmHg 96%
    06:00 +25°C° 1 mm 0 m/S 746 mmHg 96%
    07:00 +26°C° 0,1 mm 0 m/S 747 mmHg 92%
    08:00 +28°C° 0,1 mm 0 m/S 748 mmHg 87%
    09:00 +29°C° 0,1 mm 0 m/S 748 mmHg 82%
    10:00 +31°C° 0,2 mm 0 m/S 748 mmHg 72%
    11:00 +35°C° 0,2 mm 1 m/S 748 mmHg 62%
    12:00 +36°C° 0,2 mm 1 m/S 747 mmHg 52%
    13:00 +36°C° 0,2 mm 1 m/S 747 mmHg 54%
    14:00 +36°C° 0,2 mm 1 m/S 746 mmHg 56%
    15:00 +35°C° 0,2 mm 1 m/S 745 mmHg 58%
    16:00 +33°C° 1,7 mm 1 m/S 745 mmHg 69%
    17:00 +31°C° 1,7 mm 1 m/S 746 mmHg 80%
    18:00 +29°C° 1,7 mm 1 m/S 746 mmHg 91%
    19:00 +29°C° 1,9 mm 1 m/S 747 mmHg 93%
    20:00 +28°C° 1,9 mm 1 m/S 748 mmHg 95%
    21:00 +28°C° 1,9 mm 1 m/S 748 mmHg 97%
    22:00 +27°C° 1,4 mm 1 m/S 748 mmHg 98%
    23:00 +27°C° 1,4 mm 1 m/S 748 mmHg 98%

    übermorgen, 28 September, Donnerstag

    Zeit Temperatur Niederschläge Wind Luftdruck Luftfeuchtigkeit
    00:00 +27°C° 1,4 mm 1 m/S 748 mmHg 98%
    01:00 +25°C° 1,4 mm 0 m/S 748 mmHg 98%
    02:00 +25°C° 1,4 mm 0 m/S 747 mmHg 98%
    03:00 +25°C° 1,4 mm 0 m/S 747 mmHg 98%
    04:00 +24°C° 0,5 mm 0 m/S 747 mmHg 97%
    05:00 +24°C° 0,5 mm 0 m/S 747 mmHg 97%
    06:00 +24°C° 0,5 mm 0 m/S 748 mmHg 97%
    07:00 +25°C° 0,1 mm 0 m/S 748 mmHg 94%
    08:00 +26°C° 0,1 mm 0 m/S 749 mmHg 91%
    09:00 +27°C° 0,1 mm 0 m/S 750 mmHg 87%
    10:00 +29°C° 0,3 mm 0 m/S 749 mmHg 81%
    11:00 +32°C° 0,3 mm 1 m/S 749 mmHg 75%
    12:00 +33°C° 0,3 mm 1 m/S 748 mmHg 69%
    13:00 +33°C° 0,2 mm 1 m/S 748 mmHg 67%
    14:00 +33°C° 0,2 mm 1 m/S 747 mmHg 65%
    15:00 +34°C° 0,2 mm 1 m/S 746 mmHg 63%
    16:00 +32°C° 0,1 mm 1 m/S 747 mmHg 70%
    17:00 +31°C° 0,1 mm 1 m/S 747 mmHg 76%
    18:00 +29°C° 0,1 mm 1 m/S 748 mmHg 82%
    19:00 +29°C° 1 mm 1 m/S 748 mmHg 86%
    20:00 +28°C° 1 mm 1 m/S 749 mmHg 90%
    21:00 +27°C° 1 mm 1 m/S 749 mmHg 94%
    22:00 +25°C° 0,4 mm 0 m/S 749 mmHg 95%
    23:00 +25°C° 0,4 mm 0 m/S 749 mmHg 96%

    29 September, Freitag

    Zeit Temperatur Niederschläge Wind Luftdruck Luftfeuchtigkeit
    00:00 +25°C° 0,4 mm 0 m/S 749 mmHg 98%
    01:00 +24°C° 0,9 mm 0 m/S 748 mmHg 98%
    02:00 +24°C° 0,9 mm 0 m/S 748 mmHg 98%
    03:00 +24°C° 0,9 mm 0 m/S 748 mmHg 98%
    04:00 +24°C° 0,7 mm 0 m/S 748 mmHg 98%
    05:00 +24°C° 0,7 mm 0 m/S 748 mmHg 98%
    06:00 +24°C° 0,7 mm 0 m/S 749 mmHg 98%
    07:00 +25°C° 0,1 mm 0 m/S 749 mmHg 95%
    08:00 +26°C° 0,1 mm 0 m/S 750 mmHg 91%
    09:00 +27°C° 0,1 mm 0 m/S 750 mmHg 88%
    10:00 +29°C° 0,1 mm 0 m/S 750 mmHg 77%
    11:00 +31°C° 0,1 mm 0 m/S 749 mmHg 66%
    12:00 +33°C° 0,1 mm 0 m/S 748 mmHg 55%
    13:00 +35°C° 0 mm 1 m/S 748 mmHg 55%
    14:00 +35°C° 0 mm 1 m/S 747 mmHg 56%
    15:00 +34°C° 0 mm 1 m/S 746 mmHg 57%
    16:00 +33°C° 0,1 mm 1 m/S 747 mmHg 66%
    17:00 +31°C° 0,1 mm 1 m/S 747 mmHg 75%
    18:00 +29°C° 0,1 mm 1 m/S 748 mmHg 84%
    19:00 +28°C° 0,4 mm 1 m/S 748 mmHg 88%
    20:00 +28°C° 0,4 mm 1 m/S 749 mmHg 92%
    21:00 +27°C° 0,4 mm 1 m/S 749 mmHg 95%
    22:00 +25°C° 0,5 mm 0 m/S 749 mmHg 96%
    23:00 +25°C° 0,5 mm 0 m/S 749 mmHg 97%

    30 September, Samstag

    Zeit Temperatur Niederschläge Wind Luftdruck Luftfeuchtigkeit
    00:00 +24°C° 0,5 mm 0 m/S 749 mmHg 98%
    01:00 +24°C° 0,9 mm 0 m/S 748 mmHg 98%
    02:00 +24°C° 0,9 mm 0 m/S 748 mmHg 98%
    03:00 +24°C° 0,9 mm 0 m/S 748 mmHg 98%
    04:00 +24°C° 0,3 mm 0 m/S 748 mmHg 98%
    05:00 +24°C° 0,3 mm 0 m/S 749 mmHg 98%
    06:00 +24°C° 0,3 mm 0 m/S 749 mmHg 98%
    07:00 +25°C° 0,5 mm 0 m/S 749 mmHg 94%
    08:00 +26°C° 0,5 mm 0 m/S 750 mmHg 90%
    09:00 +27°C° 0,5 mm 0 m/S 750 mmHg 87%
    10:00 +29°C° 0,3 mm 0 m/S 750 mmHg 80%
    11:00 +30°C° 0,3 mm 0 m/S 749 mmHg 73%
    12:00 +31°C° 0,3 mm 0 m/S 749 mmHg 67%
    13:00 +33°C° 0,2 mm 1 m/S 748 mmHg 66%
    14:00 +33°C° 0,2 mm 1 m/S 747 mmHg 64%
    15:00 +33°C° 0,2 mm 1 m/S 747 mmHg 63%
    16:00 +31°C° 0,5 mm 1 m/S 747 mmHg 72%
    17:00 +30°C° 0,5 mm 1 m/S 748 mmHg 80%
    18:00 +28°C° 0,5 mm 1 m/S 748 mmHg 88%
    19:00 +27°C° 0,8 mm 1 m/S 748 mmHg 91%
    20:00 +27°C° 0,8 mm 1 m/S 749 mmHg 94%
    21:00 +24°C° 0,8 mm 0 m/S 749 mmHg 97%
    22:00 +24°C° 0,7 mm 0 m/S 749 mmHg 97%
    23:00 +24°C° 0,7 mm 0 m/S 749 mmHg 97%

    1 Oktober, Sonntag

    Zeit Temperatur Niederschläge Wind Luftdruck Luftfeuchtigkeit
    00:00 +24°C° 0,7 mm 0 m/S 749 mmHg 98%
    01:00 +24°C° 1,5 mm 0 m/S 748 mmHg 98%
    02:00 +24°C° 1,5 mm 0 m/S 748 mmHg 98%
    03:00 +24°C° 1,5 mm 0 m/S 748 mmHg 98%
    04:00 +24°C° 0,5 mm 0 m/S 748 mmHg 98%
    05:00 +23°C° 0,5 mm 0 m/S 748 mmHg 98%
    06:00 +23°C° 0,5 mm 0 m/S 748 mmHg 98%
    07:00 +25°C° 0,1 mm 0 m/S 749 mmHg 91%
    08:00 +27°C° 0,1 mm 0 m/S 749 mmHg 85%
    09:00 +28°C° 0,1 mm 0 m/S 750 mmHg 78%
    10:00 +29°C° 0,2 mm 0 m/S 749 mmHg 74%
    11:00 +30°C° 0,2 mm 0 m/S 749 mmHg 69%
    12:00 +33°C° 0,2 mm 1 m/S 748 mmHg 64%
    13:00 +32°C° 1,3 mm 1 m/S 747 mmHg 73%
    14:00 +31°C° 1,3 mm 1 m/S 747 mmHg 82%
    15:00 +30°C° 1,3 mm 1 m/S 746 mmHg 91%
    16:00 +29°C° 0,9 mm 1 m/S 747 mmHg 92%
    17:00 +28°C° 0,9 mm 1 m/S 747 mmHg 94%
    18:00 +27°C° 0,9 mm 1 m/S 747 mmHg 95%
    19:00 +27°C° 0,6 mm 1 m/S 748 mmHg 96%
    20:00 +27°C° 0,6 mm 1 m/S 748 mmHg 96%
    21:00 +24°C° 0,6 mm 0 m/S 748 mmHg 97%
    22:00 +24°C° 0,3 mm 0 m/S 748 mmHg 98%
    23:00 +24°C° 0,3 mm 0 m/S 748 mmHg 98%
    Mehr zeigen